FW6547 Weather Reports


Display with metric or nautical units.
time (UTC)temp
F
wind
direction
speed
MPH
gust
MPH
rain 1hr
in
rain 24hr
in
rain mn
in
humidity
%
barometer
mb
20260507150639 54 145 0.0 2.0 0.00 0.02 0.02 60 1015.6
20260507145637 54 138 0.0 2.0 0.00 0.02 0.02 62 1015.8
20260507144637 54 136 0.0 0.0 0.00 0.02 0.02 62 1016.1
20260507143637 53 123 0.0 2.0 0.00 0.02 0.02 61 1016.1
20260507142636 53 139 0.0 1.0 0.00 0.02 0.02 63 1015.9
20260507141635 53 72 1.0 2.0 0.00 0.02 0.02 64 1016.2
20260507140634 53 136 0.0 1.0 0.00 0.02 0.02 65 1016.1
20260507135634 53 129 2.0 3.0 0.00 0.02 0.02 65 1016.4
20260507134633 53 62 2.0 3.0 0.00 0.02 0.02 65 1016.8
20260507133631 53 82 2.0 2.0 0.00 0.02 0.02 68 1016.4
20260507132631 53 165 0.0 2.0 0.00 0.02 0.02 66 1016.5
20260507131630 53 140 0.0 1.0 0.00 0.02 0.02 70 1016.2
20260507130630 53 131 2.0 2.0 0.00 0.02 0.02 71 1016.3
20260507125627 53 160 0.0 3.0 0.00 0.02 0.02 71 1016.1
20260507124625 53 139 0.0 1.0 0.00 0.02 0.02 72 1016.1
20260507123622 53 139 0.0 2.0 0.00 0.02 0.02 71 1016.2
20260507122619 53 140 0.0 1.0 0.00 0.02 0.02 71 1016.2
20260507121617 53 149 0.0 1.0 0.00 0.02 0.02 73 1016.3
20260507120615 53 109 2.0 3.0 0.00 0.02 0.02 73 1016.1
20260507115615 53 95 2.0 2.0 0.00 0.02 0.02 74 1016.2
20260507114612 53 95 1.0 2.0 0.00 0.02 0.02 76 1016.0
20260507113607 54 135 1.0 2.0 0.00 0.02 0.02 75 1015.8
20260507112602 54 83 1.0 6.0 0.00 0.02 0.02 74 1015.7
20260507111601 53 135 1.0 3.0 0.00 0.02 0.02 74 1015.6
20260507110600 53 129 2.0 2.0 0.00 0.02 0.02 78 1015.7
20260507105559 53 139 0.0 2.0 0.00 0.02 0.02 81 1015.6
20260507104559 53 142 0.0 0.0 0.00 0.02 0.02 81 1015.6
20260507103557 53 138 1.0 2.0 0.00 0.02 0.02 80 1015.5
20260507102556 53 135 0.0 1.0 0.00 0.02 0.02 81 1015.4
20260507101554 54 160 0.0 1.0 0.00 0.02 0.02 81 1015.2
20260507100554 54 143 0.0 2.0 0.00 0.02 0.02 80 1015.2
20260507095549 54 134 0.0 2.0 0.00 0.02 0.02 81 1015.2
20260507094548 54 123 1.0 2.0 0.00 0.02 0.02 80 1015.2
20260507093548 54 138 0.0 2.0 0.00 0.02 0.02 81 1015.3
20260507092543 54 174 1.0 3.0 0.00 0.02 0.02 81 1015.1
20260507091543 54 66 3.0 5.0 0.00 0.02 0.02 83 1014.9
20260507090540 54 132 1.0 1.0 0.00 0.02 0.02 84 1014.9
20260507085540 54 138 0.0 5.0 0.00 0.02 0.02 84 1015.0
20260507084539 54 145 0.0 1.0 0.00 0.02 0.02 85 1015.0
20260507083538 54 120 1.0 2.0 0.00 0.02 0.02 86 1014.8
20260507082537 54 137 1.0 2.0 0.00 0.02 0.02 87 1015.1
20260507081536 54 135 0.0 2.0 0.00 0.02 0.02 88 1014.8
20260507080535 54 95 2.0 3.0 0.00 0.02 0.02 88 1014.5
20260507075533 54 128 0.0 1.0 0.00 0.02 0.02 88 1014.1
20260507074532 54 109 1.0 2.0 0.00 0.02 0.02 88 1014.1
20260507073532 54 145 0.0 2.0 0.00 0.02 0.02 87 1014.3
20260507072533 54 118 1.0 2.0 0.00 0.02 0.02 88 1013.9
20260507071527 54 134 0.0 2.0 0.00 0.02 0.02 88 1013.9
20260507070526 54 147 0.0 2.0 0.00 0.02 0.02 88 1014.1
20260507065525 54 124 1.0 3.0 0.00 0.02 0.02 88 1014.3
20260507064521 54 143 0.0 1.0 0.00 0.02 0.02 90 1014.3
20260507063521 54 115 1.0 2.0 0.00 0.02 0.02 91 1014.3
20260507062521 54 138 1.0 3.0 0.00 0.02 0.02 93 1014.5
20260507061516 55 159 0.0 0.0 0.00 0.02 0.02 94 1014.5
20260507060512 55 131 1.0 3.0 0.00 0.02 0.02 94 1014.0
20260507055509 55 110 1.0 3.0 0.00 0.02 0.02 95 1014.3
20260507054507 56 125 1.0 1.0 0.00 0.02 0.02 95 1014.1
20260507053507 56 98 0.0 1.0 0.00 0.02 0.02 94 1014.3
20260507052503 56 144 0.0 2.0 0.05 0.02 0.02 93 1014.4
20260507051503 56 141 0.0 1.0 0.00 0.01 0.01 92 1014.4
20260507050501 57 160 0.0 3.0 0.00 0.01 0.01 92 1014.0
20260507045501 57 134 1.0 2.0 0.00 0.01 0.01 91 1014.5
20260507044500 57 142 1.0 2.0 0.00 0.01 0.01 91 1014.1
20260507043458 58 139 1.0 2.0 0.07 0.01 0.01 89 1014.4
20260507042458 59 88 1.0 6.0 0.00 0.00 0.00 87 1014.6
20260507041456 59 81 3.0 6.0 0.00 0.00 0.00 86 1014.4
20260507040455 59 157 1.0 2.0 0.00 0.00 0.00 87 1014.1
20260507035453 59 129 2.0 2.0 0.00 0.34 0.34 86 1014.0
20260507034453 59 145 0.0 2.0 0.00 0.34 0.34 86 1014.0
20260507033449 60 138 1.0 5.0 0.00 0.34 0.34 84 1013.9
20260507032448 61 169 0.0 2.0 0.00 0.34 0.34 80 1014.3
20260507031446 61 141 0.0 6.0 0.00 0.34 0.34 80 1014.4
20260507030446 62 122 1.0 6.0 0.00 0.34 0.34 81 1013.9
20260507025446 62 153 0.0 3.0 0.00 0.34 0.34 84 1013.2
20260507024442 62 137 1.0 6.0 0.00 0.34 0.34 85 1013.1
20260507023440 63 147 0.0 5.0 0.00 0.34 0.34 88 1013.6
20260507022435 63 107 1.0 3.0 0.00 0.34 0.34 88 1013.0
20260507021431 64 89 2.0 2.0 0.00 0.34 0.34 88 1013.3
20260507020431 64 144 0.0 3.0 0.00 0.34 0.34 88 1012.9
20260507015427 64 79 3.0 3.0 0.00 0.34 0.34 88 1013.0
20260507014426 65 150 1.0 1.0 0.00 0.34 0.34 89 1012.8
20260507013425 65 113 0.0 2.0 0.00 0.34 0.34 89 1012.8
20260507012425 65 149 0.0 2.0 0.00 0.34 0.34 91 1013.0
20260507011425 66 133 0.0 3.0 0.00 0.34 0.34 93 1013.2
20260507010420 66 180 1.0 3.0 0.00 0.34 0.34 94 1012.9
20260507005420 65 140 0.0 1.0 0.00 0.34 0.34 94 1013.0
20260507004420 66 168 0.0 0.0 0.00 0.34 0.34 94 1012.7
20260507003418 66 168 0.0 0.0 0.00 0.34 0.34 93 1012.8
20260507002416 66 168 0.0 0.0 0.00 0.34 0.34 93 1012.8
20260507001416 66 168 0.0 0.0 0.00 0.34 0.34 91 1012.7
20260507000414 67 168 0.0 0.0 0.00 0.34 0.34 90 1012.4
20260506235414 67 168 0.0 0.0 0.00 0.34 0.34 89 1012.6
20260506234413 67 168 0.0 0.0 0.00 0.34 0.34 88 1012.5
20260506233413 67 168 0.0 0.0 0.00 0.34 0.34 86 1012.2
20260506232412 68 168 0.0 0.0 0.00 0.34 0.34 85 1011.9
20260506231411 68 168 0.0 0.0 0.00 0.34 0.34 84 1011.9
20260506230411 68 168 0.0 1.0 0.00 0.34 0.34 84 1011.6
20260506225410 68 186 0.0 0.0 0.00 0.34 0.34 84 1011.8
20260506224405 68 172 0.0 0.0 0.00 0.34 0.34 83 1011.6
20260506223402 68 214 1.0 2.0 0.00 0.34 0.34 83 1011.4
20260506222401 68 166 0.0 1.0 0.00 0.34 0.34 84 1011.6
20260506221356 68 149 0.0 1.0 0.00 0.34 0.34 83 1011.5
20260506220355 68 178 0.0 1.0 0.00 0.34 0.34 83 1011.4
20260506215353 68 171 1.0 1.0 0.00 0.34 0.34 83 1011.5
20260506214352 69 180 0.0 2.0 0.00 0.34 0.34 83 1011.5
20260506213348 69 157 2.0 2.0 0.00 0.34 0.34 83 1011.5
20260506212346 69 175 1.0 1.0 0.00 0.34 0.34 83 1011.3
20260506211344 68 169 3.0 5.0 0.00 0.34 0.34 84 1011.4
20260506210344 68 179 1.0 2.0 0.00 0.34 0.34 83 1011.4
20260506205343 69 195 2.0 3.0 0.00 0.34 0.34 83 1011.1
20260506204343 68 202 2.0 2.0 0.00 0.34 0.34 83 1010.9
20260506203343 68 155 1.0 2.0 0.00 0.34 0.34 84 1011.1
20260506202343 68 170 1.0 2.0 0.00 0.34 0.34 83 1010.9
20260506201342 68 163 0.0 3.0 0.00 0.34 0.34 84 1011.1
20260506200339 67 185 2.0 2.0 0.00 0.34 0.34 85 1011.2
20260506195338 67 179 2.0 3.0 0.00 0.34 0.34 85 1011.2
20260506194337 67 154 2.0 3.0 0.00 0.34 0.34 85 1011.3
20260506193336 67 222 2.0 5.0 0.00 0.34 0.34 84 1011.4
20260506192335 67 214 3.0 3.0 0.00 0.34 0.34 85 1011.1
20260506191334 67 156 1.0 2.0 0.00 0.34 0.34 85 1011.5
20260506190333 66 181 2.0 3.0 0.00 0.34 0.34 85 1011.5
20260506185333 66 176 1.0 2.0 0.00 0.34 0.34 87 1011.6
20260506184334 66 175 1.0 3.0 0.00 0.34 0.34 87 1011.9
20260506183332 65 172 1.0 2.0 0.00 0.34 0.34 87 1011.7
20260506182332 65 183 1.0 2.0 0.00 0.34 0.34 87 1011.8
20260506181328 65 200 1.0 3.0 0.00 0.34 0.34 87 1011.9
20260506180327 65 188 1.0 2.0 0.00 0.34 0.34 87 1012.2
20260506175326 65 185 1.0 2.0 0.00 0.34 0.34 88 1012.0
20260506174326 64 167 1.0 5.0 0.00 0.34 0.34 88 1012.1
20260506173326 64 154 1.0 8.0 0.00 0.34 0.34 90 1012.1
20260506172326 63 160 2.0 2.0 0.00 0.34 0.34 92 1012.4
20260506171326 62 175 1.0 3.0 0.00 0.34 0.34 93 1012.2
20260506170326 62 167 4.0 5.0 0.00 0.34 0.34 95 1012.3
20260506165322 62 163 1.0 3.0 0.00 0.34 0.34 96 1012.1
20260506164321 61 202 3.0 5.0 0.00 0.34 0.34 97 1012.3
20260506163319 61 140 1.0 2.0 0.00 0.34 0.34 98 1012.4
20260506162319 61 171 1.0 3.0 0.00 0.34 0.34 98 1012.3
20260506161319 61 157 1.0 3.0 0.00 0.34 0.34 99 1012.4
20260506160319 60 184 3.0 3.0 0.00 0.34 0.34 99 1012.5
20260506155314 60 175 1.0 2.0 0.00 0.34 0.34 99 1012.4
20260506153427 60 176 3.0 5.0 0.00 0.34 0.34 99 1012.7
20260506152427 60 182 2.0 3.0 0.00 0.34 0.34 99 1012.6
20260506151422 60 211 2.0 3.0 0.05 0.34 0.34 99 1012.5